This is the latest recevied weather packets stored in our database for station/object F6BIJ-13. If no packets are shown the sender has not sent any weather packets the latest 10 day(s).
| Time | Temp. | Humidity | Pressure | Rain* | Wind** | Luminosity | Snow |
|---|---|---|---|---|---|---|---|
| 1777559437 | 23.33° C | 48% | 1018.4 hPa | 0 mm | - | - | - |
| 1777559077 | 22.78° C | 48% | 1018.4 hPa | 0 mm | - | - | - |
| 1777557650 | 23.33° C | 50% | 1018.6 hPa | 0 mm | - | - | - |
| 1777557277 | 22.22° C | 48% | 1018.6 hPa | 0 mm | - | - | - |
| 1777555477 | 22.22° C | 47% | 1018.8 hPa | 0 mm | - | - | - |
| 1777554757 | 22.22° C | 47% | 1018.8 hPa | 0 mm | - | - | - |
| 1777554397 | 22.22° C | 51% | 1018.9 hPa | 0 mm | - | - | - |
| 1777553677 | 22.22° C | 49% | 1019 hPa | 0 mm | - | - | - |
| 1777552957 | 22.22° C | 53% | 1019.2 hPa | 0 mm | - | - | - |
| 1777552597 | 21.67° C | 49% | 1019.2 hPa | 0 mm | - | - | - |
| 1777552237 | 21.67° C | 50% | 1019.2 hPa | 0 mm | - | - | - |
| 1777551876 | 21.67° C | 51% | 1019.2 hPa | 0 mm | - | - | - |
| 1777551517 | 22.22° C | 50% | 1019.2 hPa | 0 mm | - | - | - |
| 1777550437 | 21.11° C | 48% | 1019.3 hPa | 0 mm | - | - | - |
| 1777550077 | 22.22° C | 51% | 1019.4 hPa | 0 mm | - | - | - |
| 1777548278 | 21.67° C | 49% | 1019.6 hPa | 0 mm | - | - | - |
| 1777547197 | 20.56° C | 53% | 1019.7 hPa | 0 mm | - | - | - |
| 1777546837 | 20.56° C | 52% | 1019.7 hPa | 0 mm | - | - | - |
| 1777546477 | 20.56° C | 52% | 1019.8 hPa | 0 mm | - | - | - |
| 1777545399 | 20° C | 50% | 1019.9 hPa | 0 mm | - | - | - |
| 1777545037 | 19.44° C | 52% | 1019.9 hPa | 0 mm | - | - | - |
| 1777544677 | 20° C | 51% | 1020 hPa | 0 mm | - | - | - |
| 1777544317 | 18.89° C | 53% | 1020 hPa | 0 mm | - | - | - |
| 1777543957 | 19.44° C | 53% | 1020 hPa | 0 mm | - | - | - |
| 1777543597 | 19.44° C | 53% | 1020 hPa | 0 mm | - | - | - |
* Rain latest 24 hours (hover to see other rain measurements)
** Current wind speed in m/s (hover to see current wind gust speed)